TimeEST,TemperatureF,Dew PointF,Humidity,Sea Level PressureIn,VisibilityMPH,Wind Direction,Wind SpeedMPH,Gust SpeedMPH,PrecipitationIn,Events,Conditions,WindDirDegrees,DateUTC
12:53 AM,32.0,26.1,79,30.35,10.0,Calm,Calm,-,N/A,,Clear,0,2012-11-16 05:53:00
1:53 AM,30.9,26.1,82,30.35,10.0,Calm,Calm,-,N/A,,Clear,0,2012-11-16 06:53:00
2:53 AM,32.0,27.0,82,30.35,10.0,Calm,Calm,-,N/A,,Clear,0,2012-11-16 07:53:00
3:53 AM,32.0,27.0,82,30.36,10.0,Calm,Calm,-,N/A,,Partly Cloudy,0,2012-11-16 08:53:00
4:53 AM,32.0,27.0,82,30.37,10.0,Calm,Calm,-,N/A,,Clear,0,2012-11-16 09:53:00
5:53 AM,32.0,28.0,85,30.38,10.0,Calm,Calm,-,N/A,,Clear,0,2012-11-16 10:53:00
6:53 AM,32.0,28.9,88,30.40,8.0,Calm,Calm,-,N/A,,Clear,0,2012-11-16 11:53:00
7:53 AM,34.0,30.0,85,30.42,6.0,Calm,Calm,-,N/A,,Clear,0,2012-11-16 12:53:00
8:53 AM,37.0,32.0,82,30.43,6.0,Calm,Calm,-,N/A,,Haze,0,2012-11-16 13:53:00
9:53 AM,39.9,32.0,73,30.43,10.0,NE,3.5,-,N/A,,Clear,50,2012-11-16 14:53:00
10:53 AM,43.0,32.0,65,30.44,10.0,North,3.5,-,N/A,,Clear,350,2012-11-16 15:53:00
11:53 AM,45.0,30.9,58,30.43,10.0,North,5.8,-,N/A,,Clear,10,2012-11-16 16:53:00
12:53 PM,46.9,28.9,50,30.42,10.0,North,3.5,-,N/A,,Clear,10,2012-11-16 17:53:00
1:53 PM,48.9,28.9,46,30.42,10.0,North,4.6,-,N/A,,Clear,350,2012-11-16 18:53:00
2:53 PM,50.0,28.9,44,30.42,10.0,North,5.8,-,N/A,,Clear,360,2012-11-16 19:53:00
3:53 PM,48.0,30.0,50,30.44,10.0,North,6.9,-,N/A,,Clear,350,2012-11-16 20:53:00
4:53 PM,44.1,32.0,63,30.46,10.0,North,4.6,-,N/A,,Clear,350,2012-11-16 21:53:00
5:53 PM,41.0,32.0,70,30.48,10.0,North,6.9,-,N/A,,Clear,360,2012-11-16 22:53:00
6:53 PM,37.9,30.9,76,30.49,10.0,North,5.8,-,N/A,,Clear,360,2012-11-16 23:53:00
7:53 PM,36.0,30.9,82,30.51,10.0,North,4.6,-,N/A,,Clear,10,2012-11-17 00:53:00
8:53 PM,35.1,30.9,85,30.51,10.0,North,3.5,-,N/A,,Clear,10,2012-11-17 01:53:00
9:53 PM,34.0,30.9,89,30.52,8.0,Calm,Calm,-,N/A,,Clear,0,2012-11-17 02:53:00
10:53 PM,35.1,30.9,85,30.52,7.0,Calm,Calm,-,N/A,,Clear,0,2012-11-17 03:53:00
11:53 PM,34.0,30.9,89,30.52,5.0,Calm,Calm,-,N/A,,Clear,0,2012-11-17 04:53:00